Track COSMOS 2508 now! 10-day predictions COSMOS 2508 is classified as:
1 40922U 15050C 24276.89659854 .00000078 00000-0 49360-3 0 9993 2 40922 82.4821 105.9083 0015825 316.7298 43.2538 12.42887879409573